Volver al catálogo

QIANFAN-53

ActivoComunicacionesPO
NORAD 62254·PAYLOAD·🇨🇳 China

Lanzado Dec 5, 2024 desde Taiyuan Satellite Launch Center

Loading…

Próximos Pases (próximas 24 horas)

TLE

ActualizadoSource: Space-Track

Época: Sep 14, 2026, 21:20 UTC

1 62254U 24232T   26257.88944457  .00000098  00000-0  13258-3 0  9992
2 62254  89.0162  13.5096 0016125 114.4312 245.8523 13.51026897105199

Sigue QIANFAN-53 en tiempo real con AllMySat

Download on the App Store